Starlink 2521

operational
NORAD ID: 48648 Int'l Des: 2021-044 Owner: SPXS Country: US Constellation: starlink
LEOCIRCULARSTARLINK_TYPE

About Starlink 2521

Description loading...

Live Position

Loading 3D Globe...

Upcoming Passes

Altitude History

Altitude vs Time

uPlot chart will show altitude changes over time

Two-Line Element Set

1 48648U 21044L 25304.53539470 .00018915 00000-0 12851-2 0 9994
2 48648 53.0541 341.5791 0001341 91.0719 269.0424 15.06407398244242
Epoch: Oct 31, 2025 • Age: 8 hours

Current Status

Altitude 555.1 km
Velocity 7.58 km/s
Sub-Earth Point -25.50°S, 31.2°W
Launch Date May 26, 2021
Age 4.4 years
Type internet

Technical Details

Classification Payload
Mass 260.00 kg
Dry Mass 248.00 kg
Total Mass 260.00 kg
Length 0.20 m
Diameter 2.80 m
Span 9.00 m
Shape Box + pan
Manufacturer SPXS
Bus Type Starlink
Phase Status In Orbit
Owner/State SPXS/US

Large Constellations

Loading constellations...